RH
72 60 47 30 26 22 20 20 18 16 20 23 25 26 30 38 37 35 30 28 26 28 28 27 28 29 30 30 28 28 29 31 33 34 35 35 34 34 34 34 33 30 29 28
73 58 46 37 29 24 23 20 20 22 21 21 27 26 31 39 35 34 29 27 26 28 28 28 28 29 30 29 28 28 30 34 35 35 35 37 36 36 34 36 34 31 30 29
65 55 51 43 34 29 24 20 23 22 23 24 25 26 28 31 37 38 33 29 28 26 25 27 28 28 30 30 28 28 30 33 36 33 35 35 36 37 37 36 36 32 30 30
77 60 53 49 38 30 28 23 24 26 23 28 25 27 23 28 30 32 35 31 27 25 27 27 27 27 28 28 30 30 31 33 35 36 37 37 34 33 35 39 38 34 32 32
82 62 51 49 38 32 30 28 29 27 28 29 30 29 19 24 27 28 26 27 25 22 21 23 23 22 23 27 29 31 32 34 35 37 39 40 39 38 37 39 41 37 34 34
82 66 58 51 46 39 36 34 36 38 35 41 28 25 20 25 17 18 20 20 21 20 20 19 20 23 23 25 28 30 32 33 36 39 40 42 41 40 40 38 40 39 37 36
88 83 64 56 53 50 42 35 53 51 52 43 39 32 18 17 15 13 14 16 17 17 18 18 19 21 24 25 27 30 31 33 36 40 41 42 44 42 41 40 40 38 38 40
96 97 74 56 44 39 38 32 44 45 55 50 44 39 23 16 15 13 11 11 12 12 12 14 15 17 19 22 25 27 30 33 36 40 41 43 45 44 43 43 41 39 42 46
98 88 74 57 45 42 42 37 33 44 47 43 40 33 24 18 16 16 14 12 10 9 9 10 12 14 17 20 21 24 28 32 37 39 42 41 41 42 43 46 45 46 48 48
91 89 77 68 57 50 37 37 42 45 55 45 46 39 23 21 18 16 16 13 10 9 9 9 10 11 13 18 21 25 27 30 37 41 43 42 41 44 45 48 50 51 47 46
88 87 85 78 71 50 49 45 41 40 45 51 44 37 23 18 16 14 14 11 11 11 10 10 10 12 13 15 21 24 27 31 38 43 46 47 46 48 50 53 54 51 48 50
88 85 96 86 73 60 48 40 41 45 46 46 48 36 24 22 18 18 16 14 14 14 13 13 14 15 16 17 20 22 27 31 37 46 50 50 51 51 49 50 50 48 48 51
92 83 92 97 88 76 62 48 36 36 40 44 41 36 27 26 25 22 20 19 17 17 18 19 19 19 20 22 23 26 28 30 36 44 50 53 54 52 47 47 49 51 55 57
96 89 77 68 65 69 67 56 49 44 47 40 40 33 29 25 24 24 23 23 23 23 24 24 24 24 24 24 26 28 30 33 36 44 49 52 57 54 52 54 57 59 58 61
93 86 76 73 69 67 62 62 60 56 49 50 38 38 34 31 28 27 26 26 26 26 27 27 26 25 25 25 29 33 36 40 42 44 48 51 54 57 56 55 61 61 62 64
97 92 88 85 66 65 67 63 65 64 61 58 50 43 34 34 32 29 29 30 29 28 27 27 26 25 24 27 29 34 37 40 45 47 47 49 50 54 58 58 60 64 67 65
98 97 95 92 81 70 75 63 60 60 61 63 64 57 52 42 39 35 29 27 29 31 31 30 28 27 26 26 30 36 40 41 41 42 42 42 45 48 52 62 60 63 73 70
97 96 98 96 92 96 64 62 58 63 78 79 74 73 70 66 56 46 38 36 37 37 34 32 30 30 31 28 32 36 38 41 42 43 45 44 45 45 52 56 71 63 76 75
94 97 97 98 96 92 77 74 76 78 81 78 79 77 72 67 58 52 53 50 44 41 39 34 31 31 33 32 36 37 39 40 44 46 43 42 43 50 54 64 72 73 76 76
89 97 97 95 96 96 96 86 85 85 90 81 78 76 75 73 67 58 58 57 53 47 43 38 37 36 37 38 38 40 41 42 44 46 45 48 53 55 59 64 64 70 75 71
92 93 95 97 97 96 92 90 88 96 86 85 83 80 75 72 70 69 66 60 59 54 51 46 41 39 40 42 44 45 45 44 47 48 52 56 58 57 59 65 66 66 65 66
90 93 95 96 97 97 93 89 90 90 83 84 84 86 81 78 73 68 64 59 58 56 53 51 51 46 43 46 48 51 52 54 53 54 55 62 64 63 66 66 66 65 64 56
94 95 94 93 94 93 90 89 91 93 89 83 81 84 84 85 80 76 68 61 59 60 58 56 55 54 51 50 50 55 58 61 61 61 61 63 65 69 69 65 62 56 54 52
84 87 92 91 93 87 81 90 89 84 88 93 91 85 84 80 81 78 75 70 65 64 63 60 59 58 58 58 55 56 61 64 67 68 69 69 69 68 64 59 55 56 55 52
77 77 82 82 81 81 92 88 84 85 82 85 89 91 88 84 81 79 76 72 70 69 65 63 63 63 63 62 64 66 66 68 70 72 72 72 71 70 65 60 59 55 54 56
59 67 72 74 76 83 83 82 77 81 86 81 83 87 90 88 84 81 80 75 72 70 68 65 63 64 65 66 67 70 71 73 73 73 72 74 75 72 68 66 64 63 63 66